Storm Lake, IA

6:25 AM CDT on July 29, 2016 (GMT -0500)
Storm Lake Municipal

Weather History for KSLB - November, 2012

Change the Weather History Date:

Monday, November 5, 2012

  Actual Average Record
Temperature  
Mean Temperature 40 °F -  
Max Temperature 41 °F 49 °F 75 °F (2001)
Min Temperature 39 °F 31 °F 26 °F (2003)
Degree Days  
Heating Degree Days 25    
Moisture  
Dew Point 40 °F    
Average Humidity 98    
Maximum Humidity 100    
Minimum Humidity 93    
Precipitation  
Precipitation 0.05 in - - ()
Sea Level Pressure  
Sea Level Pressure 30.09 in    
Wind  
Wind Speed 7 mph (East)    
Max Wind Speed 15 mph    
Max Gust Speed 21 mph    
Visibility 3 miles    
Events Fog , Rain    
Averages and records for this station are not official NWS values.
T = Trace of Precipitation, MM = Missing Value Source: NWS Daily Summary

Daily Weather History Graph

Daily Weather History Graph

Search for Another Location

Airport or City:

Trip Planner

Search our weather history database for the weather conditions in past years. The results will help you decide how hot, cold, wet, or windy it might be!

Date:

Astronomy

Nov. 05, 2012 Rise Set
Actual Time 7:00 AM CST 5:08 PM CST
Civil Twilight 6:30 AM CST 5:37 PM CST
Nautical Twilight 5:57 AM CST 6:11 PM CST
Astronomical Twilight 5:24 AM CST 6:44 PM CST
Moon 10:46 PM CST (11/5) 12:20 PM CST (11/5)
Length of Visible Light 11h 07m
Length of Day
10h 07m
Waning Gibbous, 62% of the Moon is Illuminated
Nov 5
Waning Gibbous
Nov 6
Last Quarter
Nov 13
New
Nov 20
First Quarter
Nov 28
Full

Hourly Weather History & Observations

Time (CST) Temp. Windchill Dew Point Humidity Pressure Visibility Wind Dir Wind Speed Gust Speed Precip Events Conditions
12:15 AM 41.0 °F 35.2 °F 41.0 °F 100% 30.03 in 2.0 mi ENE 9.2 mph - N/A   Light Drizzle
12:35 AM 41.0 °F 35.2 °F 41.0 °F 100% 30.04 in 2.0 mi ENE 9.2 mph - N/A   Light Drizzle
12:55 AM 41.0 °F 35.2 °F 41.0 °F 100% 30.04 in 2.0 mi ENE 9.2 mph - N/A   Light Drizzle
1:15 AM 41.0 °F 34.7 °F 41.0 °F 100% 30.04 in 2.0 mi ENE 10.4 mph - N/A   Overcast
1:35 AM 41.0 °F 34.7 °F 41.0 °F 100% 30.04 in 2.5 mi East 10.4 mph - N/A   Overcast
1:55 AM 41.0 °F 35.2 °F 41.0 °F 100% 30.04 in 2.5 mi East 9.2 mph - 0.01 in   Overcast
2:15 AM 41.0 °F 35.2 °F 41.0 °F 100% 30.04 in 3.0 mi East 9.2 mph - N/A   Light Drizzle
2:35 AM 41.0 °F 35.2 °F 41.0 °F 100% 30.05 in 3.0 mi ENE 9.2 mph - N/A   Light Drizzle
2:55 AM 41.0 °F 34.3 °F 41.0 °F 100% 30.05 in 3.0 mi ENE 11.5 mph - N/A   Light Drizzle
3:15 AM 41.0 °F 34.3 °F 41.0 °F 100% 30.05 in 3.0 mi ENE 11.5 mph - N/A   Light Drizzle
3:35 AM 41.0 °F 36.4 °F 41.0 °F 100% 30.06 in 4.0 mi ENE 6.9 mph - N/A   Light Drizzle
3:55 AM 41.0 °F 35.8 °F 41.0 °F 100% 30.06 in 3.0 mi ENE 8.1 mph - 0.01 in Rain Light Rain
4:15 AM 41.0 °F 36.4 °F 41.0 °F 100% 30.07 in 4.0 mi NE 6.9 mph - N/A   Light Drizzle
4:35 AM 41.0 °F 35.8 °F 41.0 °F 100% 30.07 in 4.0 mi NE 8.1 mph - N/A Rain Light Rain
4:55 AM 41.0 °F 35.8 °F 41.0 °F 100% 30.08 in 4.0 mi NE 8.1 mph - 0.01 in Rain Light Rain
5:15 AM 41.0 °F 35.2 °F 39.2 °F 93% 30.09 in 3.0 mi NE 9.2 mph - N/A Rain Light Rain
5:35 AM 39.2 °F 32.5 °F 39.2 °F 100% 30.09 in 2.5 mi NE 10.4 mph - N/A Rain Light Rain
5:55 AM 39.2 °F 33.0 °F 39.2 °F 100% 30.09 in 2.5 mi NE 9.2 mph - 0.02 in Rain Light Rain
6:15 AM 39.2 °F 32.5 °F 39.2 °F 100% 30.09 in 3.0 mi NE 10.4 mph - N/A Rain Light Rain
6:35 AM 39.2 °F 33.6 °F 39.2 °F 100% 30.10 in 3.0 mi NE 8.1 mph - N/A   Overcast
6:55 AM 39.2 °F 33.6 °F 39.2 °F 100% 30.10 in 2.0 mi ENE 8.1 mph - N/A   Overcast
7:15 AM 39.2 °F 34.2 °F 39.2 °F 100% 30.11 in 1.8 mi ENE 6.9 mph - N/A   Overcast
7:35 AM 39.2 °F 34.2 °F 39.2 °F 100% 30.12 in 1.5 mi NE 6.9 mph - N/A   Overcast
7:55 AM 39.2 °F 34.2 °F 39.2 °F 100% 30.12 in 0.8 mi ENE 6.9 mph - N/A   Overcast
8:15 AM 39.2 °F 35.0 °F 39.2 °F 100% 30.13 in 0.8 mi ENE 5.8 mph - N/A   Overcast
8:35 AM 39.2 °F 35.0 °F 39.2 °F 100% 30.13 in 0.8 mi ENE 5.8 mph - N/A   Overcast
8:55 AM 39.2 °F 35.0 °F 39.2 °F 100% 30.13 in 0.8 mi ENE 5.8 mph - N/A   Overcast
9:15 AM 39.2 °F 34.2 °F 39.2 °F 100% 30.14 in 0.8 mi ENE 6.9 mph - N/A   Overcast
9:35 AM 39.2 °F 33.6 °F 39.2 °F 100% 30.14 in 1.2 mi East 8.1 mph - N/A   Overcast
9:55 AM 39.2 °F 34.2 °F 39.2 °F 100% 30.14 in 1.2 mi ESE 6.9 mph - N/A   Overcast
10:15 AM 39.2 °F 34.2 °F 39.2 °F 100% 30.14 in 2.5 mi ESE 6.9 mph - N/A   Overcast
10:35 AM 39.2 °F 34.2 °F 39.2 °F 100% 30.15 in 3.0 mi East 6.9 mph - N/A   Overcast
10:55 AM 39.2 °F 34.2 °F 39.2 °F 100% 30.15 in - SE 6.9 mph - N/A   Overcast
11:15 AM 41.0 °F 38.0 °F 39.2 °F 93% 30.15 in 5.0 mi SE 4.6 mph - N/A   Overcast
11:35 AM 41.0 °F 39.0 °F 39.2 °F 93% 30.14 in 5.0 mi SE 3.5 mph - N/A   Overcast
11:55 AM 41.0 °F - 39.2 °F 93% 30.14 in 6.0 mi Calm Calm - N/A   Overcast
12:15 PM 41.0 °F - 39.2 °F 93% 30.13 in 8.0 mi Calm Calm - N/A   Overcast
12:35 PM 41.0 °F - 39.2 °F 93% 30.13 in 7.0 mi Calm Calm - N/A   Mostly Cloudy
12:55 PM 41.0 °F - 39.2 °F 93% 30.13 in 7.0 mi Calm Calm - N/A   Overcast
1:15 PM 41.0 °F - 39.2 °F 93% 30.12 in 7.0 mi Calm Calm - N/A   Overcast
1:35 PM 41.0 °F - 39.2 °F 93% 30.12 in 7.0 mi Calm Calm - N/A   Overcast
1:55 PM 41.0 °F 39.0 °F 39.2 °F 93% 30.11 in 7.0 mi West 3.5 mph - N/A   Overcast
2:15 PM 41.0 °F 38.0 °F 39.2 °F 93% 30.11 in 8.0 mi West 4.6 mph - N/A   Overcast
2:35 PM 41.0 °F - 39.2 °F 93% 30.10 in 6.0 mi Calm Calm - N/A   Overcast
2:55 PM 41.0 °F - 39.2 °F 93% 30.10 in 7.0 mi Calm Calm - N/A   Overcast
3:15 PM 41.0 °F - 39.2 °F 93% 30.10 in 5.0 mi Calm Calm - N/A   Overcast
3:35 PM 41.0 °F 39.0 °F 39.2 °F 93% 30.10 in 5.0 mi WSW 3.5 mph - N/A   Overcast
3:55 PM 41.0 °F 36.4 °F 39.2 °F 93% 30.11 in 3.0 mi WNW 6.9 mph - N/A   Overcast
4:15 PM 41.0 °F 36.4 °F 39.2 °F 93% 30.11 in 1.8 mi WNW 6.9 mph - N/A   Overcast
4:35 PM 39.2 °F 35.9 °F 39.2 °F 100% 30.10 in 1.0 mi WNW 4.6 mph - N/A   Overcast
4:55 PM 39.2 °F 35.9 °F 39.2 °F 100% 30.09 in 0.8 mi WNW 4.6 mph - N/A   Overcast
5:15 PM 39.2 °F 37.0 °F 39.2 °F 100% 30.09 in 0.2 mi West 3.5 mph - N/A Fog Fog
5:35 PM 39.2 °F 37.0 °F 39.2 °F 100% 30.08 in 0.5 mi West 3.5 mph - N/A Fog Fog
5:55 PM 39.2 °F 35.0 °F 39.2 °F 100% 30.08 in 0.2 mi West 5.8 mph - N/A Fog Fog
6:15 PM 39.2 °F 37.0 °F 39.2 °F 100% 30.08 in 0.2 mi West 3.5 mph - N/A Fog Fog
6:35 PM 39.2 °F 35.0 °F 39.2 °F 100% 30.09 in 0.2 mi West 5.8 mph - N/A Fog Fog
6:55 PM 39.2 °F 33.6 °F 39.2 °F 100% 30.09 in 0.2 mi West 8.1 mph - N/A Fog Fog
7:15 PM 39.2 °F 34.2 °F 39.2 °F 100% 30.08 in 0.2 mi West 6.9 mph - N/A Fog Fog
7:35 PM 39.2 °F 34.2 °F 39.2 °F 100% 30.08 in 0.5 mi West 6.9 mph - N/A Fog Fog
7:55 PM 39.2 °F 35.0 °F 39.2 °F 100% 30.07 in 0.5 mi WSW 5.8 mph - N/A Fog Fog
8:15 PM 39.2 °F 35.0 °F 39.2 °F 100% 30.07 in 2.0 mi SW 5.8 mph - N/A   Overcast
8:35 PM 39.2 °F 35.0 °F 39.2 °F 100% 30.07 in 1.8 mi SW 5.8 mph - N/A   Overcast
8:55 PM 39.2 °F 35.0 °F 39.2 °F 100% 30.06 in 1.8 mi SSW 5.8 mph - N/A   Overcast
9:15 PM 39.2 °F 33.6 °F 39.2 °F 100% 30.05 in 1.8 mi SSW 8.1 mph - N/A   Overcast
9:35 PM 39.2 °F 33.6 °F 39.2 °F 100% 30.06 in 1.8 mi SW 8.1 mph - N/A   Overcast
9:55 PM 39.2 °F 33.6 °F 39.2 °F 100% 30.05 in 1.8 mi SSW 8.1 mph - N/A   Overcast
10:15 PM 39.2 °F 33.6 °F 39.2 °F 100% 30.03 in 1.5 mi SSW 8.1 mph - N/A   Overcast
10:35 PM 39.2 °F 33.0 °F 39.2 °F 100% 30.02 in 2.0 mi SSW 9.2 mph - N/A   Overcast
10:55 PM 39.2 °F 33.0 °F 39.2 °F 100% 30.01 in 3.0 mi SSW 9.2 mph - N/A   Overcast
11:15 PM 39.2 °F 32.5 °F 39.2 °F 100% 30.00 in 3.0 mi SSW 10.4 mph - N/A   Overcast
11:35 PM 39.2 °F 31.2 °F 39.2 °F 100% 29.98 in 3.0 mi SSW 13.8 mph - N/A   Overcast
11:55 PM 39.2 °F 30.8 °F 39.2 °F 100% 29.98 in 3.0 mi SW 15.0 mph 20.7 mph N/A   Overcast